Location: Lombard
(41.8800°N, 88.0080°W)
Time: 12:39:04
(UTC-06:00)

Transit 4A - Pass Details

Date: 06 December 2023
Orbit: 870 x 973 km, 66.8° (Epoch: 02 March)

Event Time Altitude Azimuth Distance (km) Brightness Sun altitude
Rises 03:57:04 0° 333° (NNW) 3,599 - -34.2°
Reaches altitude 10° 03:59:44 10° 339° (NNW) 2,636 - -33.7°
Exits shadow 04:05:11 48° 39° (NE) 1,172 8.5 -32.7°
Maximum altitude 04:05:39 49° 53° (NE) 1,155 8.5 -32.6°
Drops below altitude 10° 04:11:22 10° 128° (SE) 2,553 10.8 -31.5°
Sets 04:13:55 0° 134° (SE) 3,477 11.6 -31.1°
